Regional Weather Roundup
Issued by NWS New Orleans/Baton Rouge, LA

Home | Current Version | Previous Version | Graphics & Text | Print | Product List | Glossary On
Versions: 1 2 3 4 5 6 7 8 9 10 11 12 13 14 15 16 17 18 19 20 21 22 23 24 25 26 27 28 29 30 31 32 33 34 35 36 37 38 39 40 41 42 43 44 45 46 47 48 49 50
904
ASUS44 KLIX 231710
RWRLIX
NEW ORLEANS REGIONAL WEATHER ROUNDUP
NATIONAL WEATHER SERVICE NEW ORLEANS LA
1200 PM CDT WED APR 23 2014

NOTE: "FAIR" INDICATES FEW OR NO CLOUDS BELOW 12,000 FEET WITH NO
      SIGNIFICANT WEATHER AND/OR OBSTRUCTIONS TO VISIBILITY.
      SKY/WX - SKY CONDITION AND SIGNIFICANT WEATHER.
      TMP - AIR TEMPERATURE.     DP    - DEWPOINT TEMPERATURE.
      RH  - RELATIVE HUMIDITY.   PRES  - PRESSURE.
      HI  - HEAT INDEX.          WCI   - WIND CHILL INDEX.

*  THESE STATIONS ARE NOT NWS OR FAA STATIONS AND ARE NOT UNDER
   NWS QUALITY CONTROL.

LAZ038-040-048-061>063-065>067-069-231800-
SOUTHEAST LOUISIANA

CITY           SKY/WX    TMP DP  RH WIND       PRES   REMARKS
N.O. AUDUBON     N/A     82  65  56 MISG        N/A
N.O. INTL ARPT MOSUNNY   79  62  56 VRB6      29.99F
N.O. LAKEFRONT SUNNY     73  64  73 NW7       29.99F
N.O. DOWNTOWN* PTSUNNY   79  57  47 E5        29.99F
SLIDELL        MOSUNNY   79  60  52 NE3       29.97F
BATON ROUGE    SUNNY     80  55  42 E5        29.99F
BOOTHVILLE     SUNNY     76  64  66 VRB3      30.00F
BELLE CHASSE   PTSUNNY   78  60  53 CALM      29.98F
BOGALUSA*        N/A     81  56  42 N6        29.99F
GALLIANO*      MOSUNNY   80  61  52 N5        29.99F
NEW ROADS*     PTSUNNY   78  57  47 CALM      30.00S
GONZALES*        N/A     79  58  48 CALM      29.98F
HAMMOND*       SUNNY     82  54  36 CALM      30.00F
HOUMA*         SUNNY     79  57  47 N6        30.00S
PORT FOURCHON* PTSUNNY   75  66  73 S5        30.01F

$$

MSZ070-080>082-231800-
SOUTHERN MISSISSIPPI

CITY           SKY/WX    TMP DP  RH WIND       PRES   REMARKS
MCCOMB         SUNNY     78  52  40 MISG      29.99F
GULFPORT       PTSUNNY   80  64  58 S10       29.97F
BILOXI         PTSUNNY   78  67  67 S10       29.97F
PASCAGOULA     MOSUNNY   79  62  56 VRB3      29.96F
STENNIS ARPT*  MOSUNNY   79  57  47 CALM      29.98F

$$

COASTAL OBSERVATIONS
LAKE AND NEARSHORE STATIONS

STATION/POSITION TIME  TEMP    WIND        PRES    WAVE
                       AIR SEA DIR/SP/G            HT/PER
                 (UTC) (F)     (DEG/KT/KT) (MB)    (FT/S)
PASCAGOULA       1700   72     200/  8/ 10 1014.4
WAVELAND YACHT   1700   71 72  170/ 10/ 11 1014.4
GRAND ISLE       1700   75 71   10/  3/  4 1016.3
SOUTHWEST PASS   1700   75 60  220/  3/  4 1016.0
NEW CANAL        1700   70 69  350/  4/  5 1016.0
SHELL BEACH      1700   69 68  330/  5/  6 1015.3

OFFSHORE STATIONS

STATION/POSITION TIME  TEMP    WIND        PRES    WAVE
                       AIR SEA DIR/SP/G            HT/PER
                 (UTC) (F)     (DEG/KT/KT) (MB)    (FT/S)
64 S DAUPHIN ISL 1558   68 70   20/  6/  6 1015.6

$$




USA.gov is the U.S. government's official web portal to all federal, state and local government web resources and services.